Home   Weather   Sundern (Sauerland)   Past weeks

Flag for Germany Past Weather in Sundern (Sauerland), North Rhine-Westphalia, Germany — Yesterday and Last 2 Weeks

Now
52 °F

Passing clouds.


Feels Like: 46 °F
Forecast: 36 / 43 °F
Wind: 22 mph from South

Location: Dortmund / Wickede

Current Time: Feb 27, 2017 at 5:09:07 pm

Latest Report: Feb 27, 2017 at 4:20 pm


Visibility: N/A

Pressure: 29.36 "Hg

Humidity: 54%

Dew Point: 36 °F

Location of Sundern (Sauerland)Location

Past Weather in Sundern (Sauerland) — Graph

°F

Sundern (Sauerland) Temperature Yesterday

Maximum temperature yesterday: 50 °F (at 1:50 pm)
Minimum temperature yesterday: 43 °F (at 5:20 am)
Average temperature yesterday: 47 °F

High & Low Weather Summary for the Past Weeks

 TemperatureHumidityPressure
High61 °F (Feb 15, 2:50 pm)94% (Feb 20, 9:50 pm)30.51 "Hg (Feb 20, 9:50 pm)
Low28 °F (Feb 13, 5:20 am)29% (Feb 15, 2:50 pm)29.18 "Hg (Feb 23, 4:56 pm)
Average43 °F72%30.05 "Hg
* Reported Feb 12 3:20 pm — Feb 27 3:50 pm, Sundern (Sauerland), Weather by CustomWeather, © 2017

Note: Actual official high and low records may vary slightly from our data, if they occured in-between our weather recording intervals... More about our weather records

Advertising

Sundern (Sauerland) Weather History for the Previous 24 Hours

Scroll right to see more
 ConditionsComfort  
Time TempWeatherWind HumidityBarometerVisibility
3:50 pm
Mon, Feb 27
54 °FScattered clouds.16 mph51%29.39 "HgN/A
3:20 pm52 °FPartly sunny.18 mph54%29.42 "HgN/A
2:50 pm52 °FPartly sunny.18 mph54%29.42 "HgN/A
2:20 pm52 °FPartly sunny.14 mph58%29.45 "HgN/A
1:50 pm52 °FPartly sunny.18 mph58%29.45 "HgN/A
1:20 pm52 °FPartly sunny.18 mph54%29.47 "HgN/A
12:50 pm52 °FPartly sunny.16 mph58%29.50 "HgN/A
12:20 pm52 °FPartly sunny.17 mph58%29.53 "HgN/A
11:50 am52 °FPartly sunny.16 mph58%29.53 "HgN/A
11:20 am52 °FPartly sunny.16 mph58%29.56 "HgN/A
10:50 am50 °FPartly sunny.15 mph62%29.56 "HgN/A
10:20 am50 °FPartly sunny.16 mph67%29.59 "HgN/A
9:50 am50 °FPartly sunny.15 mph62%29.59 "HgN/A
9:20 am50 °FPartly sunny.16 mph67%29.62 "HgN/A
8:50 am50 °FPartly sunny.16 mph67%29.62 "HgN/A
8:20 am48 °FPartly sunny.12 mph71%29.62 "HgN/A
7:50 am48 °FPartly sunny.12 mph66%29.65 "HgN/A
7:20 am48 °FPartly sunny.14 mph71%29.65 "HgN/A
6:50 am48 °FPassing clouds.13 mph66%29.65 "HgN/A
6:20 am48 °FPassing clouds.12 mph71%29.68 "HgN/A
5:50 am48 °FPassing clouds.13 mph66%29.68 "HgN/A
5:20 am48 °FPassing clouds.12 mph66%29.68 "HgN/A
9:50 pm
Sun, Feb 26
48 °FPassing clouds.14 mph71%29.80 "HgN/A
9:20 pm48 °FPassing clouds.13 mph76%29.80 "HgN/A
8:50 pm48 °FPassing clouds.13 mph76%29.83 "HgN/A
8:20 pm48 °FPassing clouds.15 mph76%29.83 "HgN/A
7:50 pm50 °FPassing clouds.13 mph71%29.83 "HgN/A
7:20 pm50 °FPassing clouds.12 mph67%29.83 "HgN/A
6:50 pm50 °FPassing clouds.12 mph71%29.83 "HgN/A
6:20 pm48 °FPassing clouds.10 mph71%29.83 "HgN/A
5:50 pm50 °FScattered showers. Partly sunny.17 mph71%29.80 "HgN/A
5:20 pm50 °FScattered clouds.16 mph71%29.80 "HgN/A
Weather by CustomWeather, © 2017

See weather overviewHow to use our weather pages